User: anonymous   Login
Location: Treviso
(45.6669°N, 12.2430°E)
Time: 07:12:46
(UTC+02:00)
Language:

ISS - Orbit

View from above orbital plane
View from above orbital plane
View from above satellite
View from above satellite

Ground track
Ground track

The orbit data is extracted from the following two-line orbital elements,

1 25544U 98067A   24114.81406062  .00036794  00000-0  63236-3 0  9991
2 25544  51.6382 225.0161 0004658  89.0878 271.0645 15.50757217450113
Epoch (UTC): 23 April 2024 19:32:14
Eccentricity: 0.0004658
inclination: 51.6382°
perigee height: 411 km
apogee height: 417 km
right ascension of ascending node: 225.0161°
argument of perigee: 89.0878°
revolutions per day: 15.50757217
mean anomaly at epoch: 271.0645°
orbit number at epoch: 45011

The dashed part of the orbit path shows where the satellite is in the earth's shadow,  

DLR